Regional Weather Roundup
Issued by NWS New Orleans/Baton Rouge, LA

Current Version | Previous Version | Text Only | Print | Product List | Glossary On
Versions: 1 2 3 4 5 6 7 8 9 10 11 12 13 14 15 16 17 18 19 20 21 22 23 24 25 26 27 28 29 30 31 32 33 34 35 36 37 38 39 40 41 42 43 44 45 46 47 48 49 50
000
ASUS44 KLIX 301311
RWRLIX
NEW ORLEANS REGIONAL WEATHER ROUNDUP
NATIONAL WEATHER SERVICE NEW ORLEANS LA
800 AM CDT TUE AUG 30 2016

NOTE: "FAIR" INDICATES FEW OR NO CLOUDS BELOW 12,000 FEET WITH NO
      SIGNIFICANT WEATHER AND/OR OBSTRUCTIONS TO VISIBILITY.
      SKY/WX - SKY CONDITION AND SIGNIFICANT WEATHER.
      TMP - AIR TEMPERATURE.     DP    - DEWPOINT TEMPERATURE.
      RH  - RELATIVE HUMIDITY.   PRES  - PRESSURE.
      HI  - HEAT INDEX.          WCI   - WIND CHILL INDEX.

*  THESE STATIONS ARE NOT NWS OR FAA STATIONS AND ARE NOT UNDER
   NWS QUALITY CONTROL.

LAZ038-040-048-061>063-065>067-069-301400-
SOUTHEAST LOUISIANA

CITY           SKY/WX    TMP DP  RH WIND       PRES   REMARKS
N.O. AUDUBON     N/A     86  76  72 MISG        N/A  HX  95
N.O. INTL ARPT MOSUNNY   84  75  74 NE9       29.96R
N.O. LAKEFRONT SUNNY     82  75  79 NE13      29.96R
N.O. DOWNTOWN*   N/A     81  75  82 NE8       29.96R
RESERVE*         N/A     81  78  90 N7        29.96R
SLIDELL        SUNNY     77  74  90 NE5       29.95R
BATON ROUGE    SUNNY     77  74  90 NE7       29.97R
BOOTHVILLE     MOSUNNY   84  78  82 E13       29.93R HX  95
BELLE CHASSE   MOSUNNY   80  77  90 NE5       29.95R
BOGALUSA*        N/A     77  72  82 NE3       29.99S
GALLIANO*      SUNNY    N/A N/A N/A N7        29.94R
NEW ROADS*       N/A     75  73  93 N3        29.98R
GONZALES*        N/A     77  74  90 CALM      29.96R
HAMMOND*       SUNNY     77  72  83 NE6       29.97R
HOUMA*         MOSUNNY   79  77  94 N9        29.95R
PORT FOURCHON* SUNNY     82  79  89 N10       29.93R

$$

MSZ070-080>082-301400-
SOUTHERN MISSISSIPPI

CITY           SKY/WX    TMP DP  RH WIND       PRES   REMARKS
MCCOMB         MOSUNNY   78  71  79 NE5       30.00R
GULFPORT       SUNNY     79  74  84 NE8       29.95R
BILOXI         SUNNY     78  75  90 NE8       29.96R
PASCAGOULA     SUNNY     78  75  90 NE6       29.96R
STENNIS ARPT*  MOSUNNY   77  70  78 NE6       29.96R

$$

COASTAL OBSERVATIONS
LAKE AND NEARSHORE STATIONS

STATION/POSITION TIME  TEMP    WIND        PRES    WAVE
                       AIR SEA DIR/SP/G            HT/PER
                 (UTC) (F)     (DEG/KT/KT) (MB)    (FT/S)
PASCAGOULA       1200   77      40/  9/ 12 1013.5
WAVELAND YACHT   1200   78 84   60/ 12/ 14 1014.1
GRAND ISLE       1200   82 84   50/  8/ 14 1013.1
SOUTHWEST PASS   1200           40/ 10/ 12   N/A
NEW CANAL        1200   81 85   50/ 14/ 15 1013.0
SHELL BEACH      1200   82 84   50/ 14/ 15 1013.4

OFFSHORE STATIONS

STATION/POSITION TIME  TEMP    WIND        PRES    WAVE
                       AIR SEA DIR/SP/G            HT/PER
                 (UTC) (F)     (DEG/KT/KT) (MB)    (FT/S)
64 S DAUPHIN ISL 1200   84 85   70/ 14/ 16 1012.4

$$




USA.gov is the U.S. government's official web portal to all federal, state and local government web resources and services.